USA 62

导读 | 豆包AI

USA 62是美国于1990年6月8日9点发射的军用侦察卫星,属于美国国家侦察局的卫星系列。该卫星主要用于空间侦察与情报搜集任务,服务于美国的军事战略需求。作为冷战末期部署的太空 assets,它延续了美国在太空军事侦察领域的部署,体现了当时美国对空间态势感知能力的建设,具体任务细节因涉密并未公开,是美国空间军事体系的早期组成部分。

基本信息
目录编号:
20692
目录名称:
USA 62
国际标识:
1990-050D
轨道中心:
EARTH
卫星名称:
USA 62
卫星全名:
--
卫星状态:
在轨 (已飞行13111 天)
发射日期:
1990-06-08 UTC
国别 :
美国 (US)
星等 :
--
轨道信息
数据来源 国际轨道数据 AOE轨道数据
星历时间 2026-05-01T03:55:34+0800
11小时前
查看轨道信息
2026-05-01T05:00:00+0800
10小时前
查看轨道信息
半长轴 7398.698km 7398.691km
偏心率 0.0875635 0.0875484
轨道倾角 63.296° 63.295°
近地点辐角 83.769° 83.778°
升交点赤经 337.769° 337.648°
平近点角 286.225° 145.953°
近地点 372.705km 372.81km
远地点 1668.417km 1668.298km
周期 105.558分钟 105.558分钟
每日圈数 13.641742 13.641762
详细信息
使用方式:
暂无
2D轨道图
3D轨道图
轨道高度分析图
轨道倾角分析图
轨道综合分析图
查看轨道综合分析图